EA3DKP Weather Reports


time (UTC)temp
C
wind
direction
speed
KPH
gust
KPH
rain 1hr
cm
rain 24hr
cm
rain mn
cm
humidity
%
barometer
mb
20260507130021 21 360 0.0 0.0 0.00 0.00 0.30 53 1011.6
20260507124519 20 360 0.0 0.0 0.00 0.00 0.30 55 1011.5
20260507123011 20 272 0.0 0.0 0.00 0.00 0.30 55 1011.4
20260507121510 20 360 0.0 0.0 0.00 0.00 0.30 55 1011.4
20260507120011 20 360 0.0 0.0 0.00 0.00 0.30 58 1011.5
20260507114504 20 360 0.0 0.0 0.00 0.00 0.30 59 1011.5
20260507113051 19 360 0.0 0.0 0.00 0.00 0.30 61 1011.8
20260507111550 19 360 0.0 0.0 0.00 0.00 0.30 62 1011.9
20260507110048 19 277 0.0 0.0 0.00 0.00 0.30 61 1011.9
20260507104544 18 279 0.0 0.0 0.00 0.00 0.30 64 1012.0
20260507103040 18 360 0.0 0.0 0.00 0.00 0.30 69 1012.2
20260507101538 17 277 0.0 0.0 0.00 0.00 0.30 73 1012.4
20260507100036 17 360 0.0 0.0 0.00 0.00 0.30 73 1012.3
20260507094535 17 360 0.0 0.0 0.00 0.00 0.30 73 1012.3
20260507093025 17 360 0.0 0.0 0.00 0.00 0.30 72 1012.2
20260507091525 17 360 0.0 0.0 0.00 0.00 0.30 72 1012.1
20260507090021 17 120 0.0 0.0 0.00 0.00 0.30 73 1012.0
20260507084517 16 135 0.0 0.0 0.00 0.00 0.30 76 1012.2
20260507083012 16 134 0.0 0.0 0.00 0.00 0.30 76 1012.4
20260507081509 16 360 0.0 0.0 0.00 0.00 0.30 80 1012.5
20260507080005 15 123 0.0 0.0 0.00 0.00 0.30 83 1012.6
20260507074601 15 360 0.0 0.0 0.00 0.00 0.30 86 1012.4
20260507073045 14 360 0.0 0.0 0.00 0.00 0.30 87 1012.4
20260507071600 13 360 0.0 0.0 0.00 0.00 0.30 88 1012.3
20260507070037 13 360 0.0 0.0 0.00 0.00 0.30 88 1012.2
20260507064531 13 360 0.0 0.0 0.00 0.00 0.30 89 1012.2
20260507063026 12 360 0.0 0.0 0.00 0.00 0.30 89 1012.2
20260507061523 12 360 0.0 0.0 0.00 0.00 0.30 89 1011.9
20260507060018 11 360 0.0 0.0 0.00 0.00 0.30 89 1011.9
20260507054515 11 360 0.0 0.0 0.00 0.00 0.30 88 1011.8
20260507053002 11 360 0.0 0.0 0.00 0.00 0.30 88 1011.8
20260507051606 11 360 0.0 0.0 0.00 0.00 0.30 88 1011.6
20260507050104 10 360 0.0 0.0 0.00 0.00 0.30 88 1011.5
20260507044559 11 126 0.0 0.0 0.00 0.00 0.30 88 1011.6
20260507043056 11 360 0.0 0.0 0.00 0.00 0.30 88 1011.7
20260507041556 11 360 0.0 0.0 0.00 0.00 0.30 88 1011.6
20260507040052 11 360 0.0 0.0 0.00 0.00 0.30 88 1011.5
20260507034550 12 360 0.0 0.0 0.00 0.00 0.30 88 1011.5
20260507033044 12 360 0.0 0.0 0.00 0.00 0.30 88 1011.5
20260507031539 12 360 0.0 0.0 0.00 0.00 0.30 88 1011.6
20260507030039 12 360 0.0 0.0 0.00 0.00 0.30 88 1011.5
20260507024540 12 360 0.0 0.0 0.00 0.00 0.30 88 1011.4
20260507023037 12 126 0.0 0.0 0.00 0.00 0.30 88 1011.5
20260507021537 12 126 0.0 0.0 0.00 0.00 0.30 88 1011.4
20260507020037 12 360 0.0 0.0 0.00 0.00 0.30 88 1011.4
20260507014542 12 126 0.0 0.0 0.00 0.00 0.30 88 1011.6
20260507013016 12 126 0.0 0.0 0.00 0.00 0.30 88 1011.7
20260507011516 12 126 0.0 0.0 0.00 0.00 0.30 88 1011.8
20260507010004 12 360 0.0 0.0 0.00 0.00 0.30 88 1011.9
20260507004503 12 360 0.0 0.0 0.00 0.00 0.30 88 1012.1
20260507003004 12 360 0.0 0.0 0.00 0.00 0.30 88 1012.2
20260507001501 12 360 0.0 0.0 0.00 0.00 0.30 87 1012.2
20260507000002 12 360 0.0 0.0 0.00 0.00 0.30 87 1012.3
20260506234559 12 360 0.0 0.0 0.00 0.00 0.30 87 1012.4
20260506233059 13 360 0.0 0.0 0.00 0.00 0.30 87 1012.4
20260506231601 13 360 0.0 0.0 0.00 0.00 0.30 87 1012.3
20260506230058 13 360 0.0 0.0 0.00 0.00 0.30 87 1012.5
20260506224545 13 360 0.0 0.0 0.00 0.00 0.30 87 1012.5
20260506223044 13 360 0.0 0.0 0.00 0.00 0.30 87 1012.5
20260506221542 13 360 0.0 0.0 0.00 0.00 0.30 87 1012.3
20260506220047 13 126 0.0 0.0 0.00 0.00 0.30 86 1012.3
20260506214549 13 126 0.0 0.0 0.00 0.00 0.30 87 1012.2
20260506213041 13 126 0.0 0.0 0.00 0.00 0.30 87 1012.2
20260506211539 13 126 0.0 0.0 0.00 0.00 0.30 87 1012.2
20260506210039 13 126 0.0 0.0 0.00 0.00 0.30 87 1012.2
20260506204521 13 126 0.0 0.0 0.00 0.00 0.30 87 1012.3
20260506203021 14 360 0.0 0.0 0.00 0.00 0.30 87 1012.2
20260506201516 14 360 0.0 0.0 0.00 0.00 0.30 87 1012.2
20260506200020 14 37 0.0 0.0 0.00 0.00 0.28 87 1012.1
20260506194518 13 36 0.0 0.0 0.00 0.00 0.25 87 1011.9
20260506193011 13 36 0.0 0.0 0.00 0.00 0.25 87 1011.7
20260506191604 13 36 0.0 0.0 0.00 0.00 0.25 87 1011.4
20260506190049 13 36 0.0 0.0 0.00 0.00 0.25 87 1011.2
20260506184530 14 36 0.0 0.0 0.00 0.00 0.25 87 1011.1
20260506183028 14 35 0.0 0.0 0.00 0.00 0.25 86 1010.9
20260506181516 14 360 0.0 0.0 0.00 0.00 0.25 86 1010.7
20260506180013 15 360 0.0 0.0 0.00 0.00 0.25 86 1010.2
20260506174510 14 360 0.0 0.0 0.00 0.00 0.25 85 1010.2
20260506173011 14 360 0.0 0.0 0.00 0.00 0.25 85 1010.1
20260506171509 15 360 0.0 0.0 0.00 0.00 0.25 84 1010.2
20260506170008 15 360 0.0 0.0 0.00 0.00 0.25 84 1010.0
20260506164507 15 173 0.0 0.0 0.00 0.00 0.25 83 1010.0
20260506163008 15 360 0.0 0.0 0.00 0.00 0.23 83 1010.1
20260506161555 15 173 0.0 0.0 0.00 0.00 0.23 79 1010.2
20260506160047 16 360 0.0 0.0 0.00 0.00 0.08 73 1010.3
20260506154547 16 181 0.0 0.0 0.00 0.00 0.00 70 1010.0
20260506153040 16 201 0.0 0.0 0.00 0.00 0.00 69 1009.4
20260506151537 17 207 0.0 0.0 0.00 0.00 0.00 67 1009.1
20260506150036 17 219 0.0 0.0 0.00 0.00 0.51 67 1009.1
20260506144549 18 360 0.0 0.0 0.00 0.00 0.51 65 1009.2
20260506143034 18 360 0.0 0.0 0.00 0.00 0.51 62 1009.2
20260506141531 18 279 0.0 0.0 0.00 0.00 0.51 63 1009.2
20260506140023 18 266 0.0 0.0 0.00 0.00 0.51 62 1009.4
20260506134522 18 234 0.0 0.0 0.00 0.00 0.51 62 1009.6
20260506133020 18 360 0.0 0.0 0.00 0.00 0.51 61 1009.7
20260506131524 18 242 0.0 0.0 0.00 0.00 0.51 62 1009.7